Detroit, MI

9:29 AM EST on February 12, 2016 (GMT -0500)
Detroit Metro Wayne County

Weather History for KDTW - April, 2013

Change the Weather History Date:

Monday, April 29, 2013

  Actual Average Record
Temperature  
Mean Temperature 62 °F 54 °F  
Max Temperature 69 °F 64 °F 83 °F (1899)
Min Temperature 54 °F 44 °F 26 °F (1977)
Degree Days  
Heating Degree Days 3 11  
Month to date heating degree days 548 469  
Since 1 July heating degree days 5766 5884  
Cooling Degree Days 0 0  
Month to date cooling degree days 0 0  
Year to date cooling degree days 0 0  
Growing Degree Days 12 (Base 50)    
Moisture  
Dew Point 52 °F    
Average Humidity 79    
Maximum Humidity 100    
Minimum Humidity 58    
Precipitation  
Precipitation T in 0.10 in 1.99 in (1909)
Month to date precipitation 5.29 2.80  
Year to date precipitation 12.31 9.06  
Snow  
Snow 0.00 in 0.00 in 1.00 in (1909)
Month to date snowfall 0.1 1.7  
Since 1 July snowfall 47.7 42.5  
Snow Depth 0.00 in    
Sea Level Pressure  
Sea Level Pressure 29.91 in    
Wind  
Wind Speed 5 mph (SW)    
Max Wind Speed 13 mph    
Max Gust Speed 15 mph    
Visibility 6 miles    
Events Fog    
T = Trace of Precipitation, MM = Missing Value Source: NWS Daily Summary

Daily Weather History Graph

Daily Weather History Graph

Search for Another Location

Airport or City:

Trip Planner

Search our weather history database for the weather conditions in past years. The results will help you decide how hot, cold, wet, or windy it might be!

Date:

Astronomy

Apr. 29, 2013 Rise Set
Actual Time 6:31 AM EDT 8:30 PM EDT
Civil Twilight 6:00 AM EDT 9:01 PM EDT
Nautical Twilight 5:23 AM EDT 9:38 PM EDT
Astronomical Twilight 4:43 AM EDT 10:19 PM EDT
Moon 12:00 AM EDT (4/29) 9:49 AM EDT (4/29)
Length of Visible Light 15h 00m
Length of Day
13h 59m
Waning Gibbous, 80% of the Moon is Illuminated
Apr 29
Waning Gibbous
May 2
Last Quarter
May 9
New
May 18
First Quarter
May 25
Full

Hourly Weather History & Observations

Time (EDT) Temp. Dew Point Humidity Pressure Visibility Wind Dir Wind Speed Gust Speed Precip Events Conditions
12:33 AM 55.4 °F 53.6 °F 94% 29.85 in 0.5 mi Calm Calm - N/A   Overcast
12:39 AM 55.4 °F 53.6 °F 94% 29.85 in 0.2 mi Calm Calm - N/A Fog Fog
12:53 AM 55.0 °F 53.1 °F 93% 29.85 in 0.2 mi Calm Calm - N/A Fog Fog
1:04 AM 53.6 °F 53.6 °F 100% 29.84 in 0.1 mi Calm Calm - N/A Fog Fog
1:53 AM 54.0 °F 53.1 °F 97% 29.86 in 0.1 mi West 3.5 mph - N/A Fog Fog
2:53 AM 54.0 °F 53.1 °F 97% 29.85 in 0.1 mi Calm Calm - N/A Fog Fog
3:53 AM 54.0 °F 53.1 °F 97% 29.86 in 0.1 mi West 4.6 mph - N/A Fog Fog
4:44 AM 53.6 °F 53.6 °F 100% 29.87 in 0.1 mi WSW 4.6 mph - N/A Fog Fog
4:48 AM 53.6 °F 53.6 °F 100% 29.87 in 0.5 mi WSW 4.6 mph - N/A   Mist
4:53 AM 54.0 °F 53.1 °F 97% 29.87 in 0.5 mi WSW 4.6 mph - N/A   Overcast
4:59 AM 53.6 °F 53.6 °F 100% 29.87 in 2.0 mi West 4.6 mph - N/A   Overcast
5:13 AM 53.6 °F 53.6 °F 100% 29.87 in 3.0 mi West 4.6 mph - N/A   Overcast
5:20 AM 53.6 °F 53.6 °F 100% 29.87 in 5.0 mi West 3.5 mph - N/A   Overcast
5:53 AM 54.0 °F 53.1 °F 97% 29.88 in 6.0 mi WSW 3.5 mph - N/A   Overcast
6:19 AM 53.6 °F 51.8 °F 94% 29.89 in 5.0 mi WSW 3.5 mph - N/A   Overcast
6:53 AM 54.0 °F 52.0 °F 93% 29.90 in 5.0 mi West 4.6 mph - N/A   Mostly Cloudy
7:39 AM 53.6 °F 51.8 °F 94% 29.91 in 6.0 mi WSW 4.6 mph - N/A   Mostly Cloudy
7:53 AM 54.0 °F 52.0 °F 93% 29.92 in 6.0 mi WSW 3.5 mph - N/A   Mostly Cloudy
8:25 AM 55.4 °F 51.8 °F 88% 29.93 in 9.0 mi SW 3.5 mph - N/A   Overcast
8:53 AM 55.0 °F 52.0 °F 89% 29.93 in 8.0 mi WSW 4.6 mph - N/A   Overcast
9:53 AM 55.9 °F 52.0 °F 87% 29.94 in 9.0 mi West 8.1 mph - N/A   Overcast
10:53 AM 57.0 °F 51.1 °F 81% 29.95 in 10.0 mi West 5.8 mph - N/A   Overcast
11:02 AM 57.2 °F 51.8 °F 82% 29.94 in 10.0 mi West 5.8 mph - N/A   Overcast
11:53 AM 60.1 °F 52.0 °F 75% 29.95 in 10.0 mi West 8.1 mph - N/A   Overcast
12:53 PM 63.0 °F 52.0 °F 67% 29.94 in 10.0 mi West 4.6 mph - N/A   Mostly Cloudy
12:58 PM 62.6 °F 51.8 °F 68% 29.93 in 10.0 mi West 6.9 mph - N/A   Mostly Cloudy
1:36 PM 64.4 °F 51.8 °F 64% 29.94 in 10.0 mi NW 4.6 mph - N/A   Overcast
1:53 PM 64.9 °F 51.1 °F 61% 29.93 in 10.0 mi Calm Calm - N/A   Overcast
2:53 PM 66.0 °F 51.1 °F 59% 29.93 in 10.0 mi South 3.5 mph - N/A   Mostly Cloudy
3:53 PM 66.0 °F 53.1 °F 63% 29.91 in 10.0 mi SSE 11.5 mph - N/A   Overcast
4:53 PM 66.9 °F 53.1 °F 61% 29.91 in 10.0 mi SSE 9.2 mph - N/A   Mostly Cloudy
5:53 PM 68.0 °F 54.0 °F 61% 29.91 in 10.0 mi SSE 6.9 mph - N/A   Mostly Cloudy
6:53 PM 66.0 °F 53.1 °F 63% 29.91 in 10.0 mi SSE 9.2 mph - N/A   Overcast
7:53 PM 64.0 °F 52.0 °F 65% 29.92 in 10.0 mi SSE 8.1 mph - N/A   Overcast
8:53 PM 60.1 °F 51.1 °F 72% 29.93 in 10.0 mi ESE 5.8 mph - N/A   Scattered Clouds
9:53 PM 57.9 °F 50.0 °F 75% 29.94 in 10.0 mi SE 4.6 mph - N/A   Partly Cloudy
10:53 PM 57.0 °F 51.1 °F 81% 29.95 in 10.0 mi Calm Calm - N/A   Mostly Cloudy
11:53 PM 57.0 °F 52.0 °F 83% 29.96 in 10.0 mi SE 5.8 mph - N/A   Overcast